www.pogodaiklimat.ru

Погода и климат >> Архив погоды >> Швейцария >> Гренхен


ПОГОДА в Гренхене

  • Прогноз погоды в Гренхене
  • Монитор погоды в Гренхене

АРХИВ ПОГОДЫ в Гренхене

Время (UTC), дата Ветер
(напр.,м/с)
 
Видим.   Явления Облачность Т
(С)
Тd
(С)
f
(%)
Тe
(С)
Тes
(С)
Комфортность P
(гПа)
Po
(гПа)
Тmin
(С)
Tmax
(С)
R
(мм)
R24
(мм)
S
(см)
07 10.07 В 6
{11}
н/о н/о +16.6 +6.6 52 +16 +16 1018.0 968.2
08 10.07 В 5
{13}
н/о н/о +18.1 +7.1 49 +18 +18 1017.8 968.3
09 10.07 В 5
{13}
н/о н/о +19.2 +7.7 47 +20 +20 1017.6 968.3
10 10.07 В 6
{9}
н/о н/о +20.8 +8.2 44 +22 +22 комфорт 1017.1 968.1
11 10.07 В 6
{9}
н/о н/о +22.2 +8.8 42 +24 +24 комфорт 1016.4 967.7
12 10.07 В 5
{13}
н/о н/о +23.1 +8.7 40 +24 +24 комфорт 1016.3 967.7
13 10.07 В 5
{9}
н/о н/о +24.2 +8.9 38 +25 +25 комфорт 1015.8 967.4
14 10.07 В 5
{9}
н/о н/о +24.5 +8.5 36 +25 +25 комфорт 1015.3 967.0
15 10.07 В 5
{9}
н/о н/о +24.8 +7.4 33 +25 +25 комфорт 1015.1 966.9
16 10.07 В 4
{8}
н/о н/о +24.5 +7.5 34 +25 +25 комфорт 1015.3 967.0
17 10.07 СВ 3
{6}
н/о н/о +23.7 +7.1 34 +24 +24 комфорт 1015.4 967.0
18 10.07 С 3
{9}
н/о н/о +21.8 +7.8 41 +23 +23 комфорт 1015.9 967.1 +24.9
19 10.07 С 3
{5}
н/о н/о +20.4 +6.8 41 +22 +22 комфорт 1016.2 967.2
20 10.07 В 2
{5}
н/о н/о +16.8 +8.9 60 +17 +17 1017.2 967.5
21 10.07 В 1
{5}
н/о н/о +14.3 +9.5 73 +15 +15 1017.7 967.5
22 10.07 штиль 0
{1}
н/о н/о +13.0 +10.1 83 +13 +13 1018.0 967.6
23 10.07 штиль 0
{1}
н/о н/о +13.2 +10.5 84 +13 +13 1017.8 967.4
00 11.07 СЗ 1
{5}
н/о н/о +12.2 +10.7 91 +13 +13 1017.6 967.1
01 11.07 СВ 1
{1}
н/о н/о +12.6 +10.7 88 +13 +13 1017.0 966.6
02 11.07 штиль 0
{1}
н/о н/о +11.7 +10.2 91 +11 +11 1016.8 966.2
03 11.07 штиль 0
{1}
н/о н/о +11.1 +10.4 95 +10 +10 1016.6 965.9
04 11.07 ЮВ 1
{1}
н/о н/о +10.3 +9.9 97 +11 +11 1016.6 965.8
05 11.07 штиль 0
{1}
н/о н/о +11.8 +10.7 93 +11 +11 1016.7 966.1
06 11.07 В 1 н/о н/о +13.9 +11.5 85 +15 +15 1016.2 966.0 +10.1
07 11.07 В 1
{1}
н/о н/о +14.9 +11.6 81 +15 +15 1016.0 966.0
08 11.07 В 1
{2}
н/о н/о +16.5 +10.5 68 +18 +18 1015.8 966.1
09 11.07 В 1
{2}
н/о н/о +17.6 +9.7 60 +19 +19 1015.3 965.8
10 11.07 В 1
{3}
н/о н/о +19.2 +10.2 56 +21 +21 комфорт 1015.2 966.0
11 11.07 З 1
{2}
н/о н/о +20.5 +9.2 48 +23 +23 комфорт 1014.6 965.7
12 11.07 СВ 1
{3}
н/о н/о +21.4 +10.7 50 +23 +23 комфорт 1014.1 965.3
13 11.07 З 1
{2}
н/о н/о +21.2 +11.2 53 +23 +23 комфорт 1014.2 965.4
14 11.07 ЮВ 1
{3}
н/о н/о +20.5 +13.2 63 +24 +24 комфорт 1014.4 965.5
15 11.07 В 1
{3}
н/о н/о +20.6 +13.6 64 +25 +25 комфорт 1014.6 965.7
16 11.07 СВ 1
{2}
н/о н/о +21.3 +12.3 56 +23 +23 комфорт 1014.3 965.5
17 11.07 В 1
{2}
н/о н/о +20.7 +13.1 62 +24 +24 комфорт 1014.6 965.7
18 11.07 ЮВ 1
{3}
н/о н/о +20.1 +14.8 72 +24 +24 комфорт 1014.9 965.9 +21.5
19 11.07 В 1
{2}
н/о н/о +18.6 +15.7 83 +21 +21 комфорт 1015.2 965.9
20 11.07 СВ 2
{2}
н/о н/о +17.0 +14.6 86 +18 +18 1015.8 966.2
21 11.07 В 1
{2}
н/о н/о +16.1 +13.7 86 +17 +17 1016.1 966.3
22 11.07 штиль 0
{1}
н/о н/о +15.3 +13.5 89 +15 +15 1016.2 966.3
23 11.07 штиль 0
{1}
н/о н/о +14.1 +13.4 96 +14 +14 1016.2 966.1
00 12.07 штиль 0
{2}
н/о н/о +12.3 +11.5 95 +12 +12 1016.5 966.0
01 12.07 ЮЗ 1
{1}
н/о н/о +12.0 +12.0 100 +13 +13 1016.1 965.6
02 12.07 ЮЗ 1
{1}
н/о н/о +11.9 +11.9 100 +12 +12 1016.2 965.7
03 12.07 З 1
{1}
н/о н/о +12.7 +12.7 100 +13 +13 1016.0 965.6
04 12.07 З 1
{2}
н/о н/о +13.0 +13.0 100 +13 +13 1015.9 965.6
05 12.07 З 1
{2}
н/о н/о +13.7 +13.7 100 +14 +14 1016.1 965.9
06 12.07 З 1
{2}
н/о н/о +15.1 +14.2 94 +16 +16 1015.5 965.6 +11.4
07 12.07 З 2
{3}
н/о н/о +16.8 +14.4 86 +17 +17 1015.3 965.7
08 12.07 ЮЗ 3
{5}
н/о н/о +18.6 +14.3 76 +19 +19 1014.8 965.5
09 12.07 ЮЗ 3
{5}
н/о н/о +18.1 +15.0 82 +18 +18 1014.8 965.4 0.1
10 12.07 ЮЗ 5
{7}
н/о н/о +22.0 +15.5 67 +26 +26 душно 1013.7 965.1
11 12.07 З 4
{8}
н/о н/о +23.2 +13.8 55 +27 +27 душно 1013.2 964.8
12 12.07 ЮЗ 4
{8}
н/о н/о +24.9 +13.9 50 +27 +27 жарко 1012.5 964.4
13 12.07 ЮЗ 6
{11}
н/о н/о +26.4 +12.6 42 +28 +28 жарко 1011.7 963.9
14 12.07 ЮЗ 6
{11}
н/о н/о +25.9 +12.0 42 +27 +27 жарко 1011.4 963.5
15 12.07 З 7
{11}
н/о н/о +26.0 +12.2 42 +27 +27 жарко 1011.3 963.4
16 12.07 З 7
{12}
н/о н/о +25.5 +11.8 42 +27 +27 жарко 1011.2 963.3
17 12.07 З 5
{13}
н/о н/о +24.9 +12.2 45 +27 +27 жарко 1011.4 963.4
18 12.07 З 6
{13}
н/о н/о +23.6 +12.3 49 +25 +25 комфорт 1012.2 963.9 +26.7
19 12.07 З 5
{12}
н/о н/о +22.8 +11.4 49 +25 +25 комфорт 1013.0 964.5
20 12.07 СЗ 7
{11}
н/о н/о +22.8 +10.3 45 +25 +25 комфорт 1013.4 964.9
21 12.07 СЗ 6
{12}
н/о н/о +22.1 +9.4 44 +24 +24 комфорт 1013.7 965.1
22 12.07 З 4
{11}
н/о н/о +21.9 +9.0 44 +23 +23 комфорт 1014.0 965.3
23 12.07 ЮЗ 3
{9}
н/о н/о +20.9 +9.5 48 +23 +23 комфорт 1014.4 965.5
00 13.07 ЮЗ 3
{12}
н/о н/о +20.8 +9.9 50 +23 +23 комфорт 1014.5 965.6
01 13.07 С 2
{5}
н/о н/о +18.8 +11.7 63 +20 +20 1015.6 966.3
02 13.07 ЮЗ 2
{4}
н/о н/о +16.1 +12.9 81 +16 +16 1016.0 966.2
03 13.07 В 2
{5}
н/о н/о +14.4 +13.2 92 +14 +14 1016.6 966.5
04 13.07 СВ 1
{5}
н/о н/о +14.9 +13.6 92 +15 +15 1017.1 967.1
05 13.07 ЮЗ 1
{3}
н/о н/о +15.1 +13.5 90 +16 +16 1017.4 967.4
06 13.07 СВ 2
{5}
н/о н/о +16.5 +13.2 81 +17 +17 1017.7 967.9 +14.3
07 13.07 СВ 2
{4}
н/о н/о +18.7 +11.8 64 +20 +20 1017.6 968.2
08 13.07 Ю 1
{3}
н/о н/о +19.8 +10.8 56 +22 +22 комфорт 1017.3 968.1
09 13.07 ЮЗ 2
{4}
н/о н/о +21.1 +10.1 49 +23 +23 комфорт 1017.0 968.0
10 13.07 СЗ 2
{6}
н/о н/о +22.1 +8.2 41 +23 +23 комфорт 1016.7 967.9
11 13.07 СВ 3
{5}
н/о н/о +22.2 +9.4 44 +24 +24 комфорт 1016.4 967.7
12 13.07 СЗ 6
{8}
н/о н/о +23.0 +9.2 41 +24 +24 комфорт 1016.3 967.7
13 13.07 С 4
{8}
н/о н/о +23.4 +8.6 39 +25 +25 комфорт 1015.9 967.4
14 13.07 С 4
{8}
н/о н/о +23.0 +8.2 39 +24 +24 комфорт 1015.8 967.2
15 13.07 СЗ 5
{9}
н/о н/о +23.7 +9.2 40 +25 +25 комфорт 1015.4 967.0
16 13.07 СЗ 6
{9}
н/о н/о +23.1 +8.5 39 +24 +24 комфорт 1015.4 966.9
17 13.07 СЗ 5
{9}
н/о н/о +22.3 +8.5 41 +24 +24 комфорт 1015.6 966.9
18 13.07 СЗ 2
{9}
н/о н/о +21.2 +8.3 43 +22 +22 комфорт 1015.9 967.0 +24.0
19 13.07 ЮВ 1
{5}
н/о н/о +19.9 +9.2 50 +23 +23 комфорт 1016.5 967.4
20 13.07 Ю 1
{3}
н/о н/о +17.8 +10.4 62 +19 +19 1017.3 967.8
21 13.07 В 1
{5}
н/о н/о +17.2 +10.8 66 +19 +19 1017.7 968.0
22 13.07 штиль 0
{1}
н/о н/о +15.5 +11.4 77 +15 +15 1017.9 967.9
23 13.07 З 1
{2}
н/о н/о +15.4 +11.7 79 +16 +16 1017.7 967.7
00 14.07 СВ 1
{5}
н/о н/о +14.7 +11.9 83 +16 +16 1017.4 967.3
01 14.07 СВ 1
{2}
н/о н/о +13.1 +10.6 85 +13 +13 1017.3 966.9
02 14.07 ЮЗ 1
{2}
н/о н/о +12.1 +10.8 92 +13 +13 1017.1 966.6
03 14.07 штиль 0
{2}
н/о н/о +10.8 +10.0 95 +10 +10 1017.0 966.2
04 14.07 З 1
{2}
н/о н/о +10.4 +9.9 97 +10 +10 1016.9 966.1
05 14.07 штиль 0
{1}
н/о н/о +11.7 +11.2 97 +11 +11 1016.5 965.9
06 14.07 СВ 1
{2}
н/о н/о +15.6 +12.3 81 +16 +16 1015.4 965.6 +10.1
07 14.07 В 4
{6}
н/о н/о +18.2 +11.8 66 +18 +18 1015.0 965.6
08 14.07 В 5
{8}
н/о н/о +21.1 +11.1 53 +23 +23 комфорт 1014.3 965.5
09 14.07 В 6
{9}
н/о н/о +22.5 +10.9 48 +25 +25 комфорт 1013.8 965.2
10 14.07 В 5
{9}
н/о н/о +23.7 +10.4 43 +25 +25 комфорт 1013.1 964.8
11 14.07 В 5
{10}
н/о н/о +24.4 +9.9 40 +25 +25 комфорт 1012.7 964.5
12 14.07 В 4
{10}
н/о н/о +24.6 +9.7 39 +25 +25 комфорт 1012.2 964.1
13 14.07 В 3
{8}
н/о н/о +25.3 +8.5 34 +26 +26 жарко 1011.5 963.5
14 14.07 С 5
{9}
н/о н/о +24.5 +10.7 42 +26 +26 жарко 1011.0 962.9
15 14.07 С 7
{11}
н/о н/о +23.1 +12.9 53 +26 +26 жарко 1011.2 962.9
16 14.07 С 10
{16}
н/о н/о +19.6 +11.6 60 +20 +20 1011.9 962.9
17 14.07 С 10
{18}
н/о н/о +18.5 +11.6 64 +18 +18 1012.6 963.4
18 14.07 С 9
{19}
н/о н/о +17.7 +11.2 66 +17 +17 1013.3 963.9 +25.5
19 14.07 С 7
{17}
н/о н/о +17.3 +10.5 64 +16 +16 1013.6 964.2
20 14.07 С 1
{9}
н/о н/о +15.3 +11.5 78 +16 +16 1015.7 965.8 5
21 14.07 В 4
{17}
н/о н/о +13.6 +13.1 97 +12 +12 1015.9 965.7 3
22 14.07 В 3
{5}
н/о н/о +13.5 +13.1 97 +12 +12 1015.7 965.5 0.1
23 14.07 С 1
{5}
н/о н/о +13.9 +13.6 98 +14 +14 1015.7 965.6
00 15.07 СВ 2
{17}
н/о н/о +13.5 +13.4 99 +13 +13 1016.0 965.8 1
01 15.07 СВ 3
{4}
н/о н/о +13.0 +13.0 100 +12 +12 1015.1 964.8 3
02 15.07 В 3
{5}
н/о н/о +13.5 +13.5 100 +12 +12 1014.1 964.0 0.3
03 15.07 В 2
{5}
н/о н/о +13.8 +13.8 100 +13 +13 1014.1 964.0 0.1
04 15.07 СВ 4
{7}
н/о н/о +14.1 +12.7 91 +13 +13 1014.2 964.2
05 15.07 СВ 4
{7}
н/о н/о +14.9 +12.4 85 +14 +14 1014.2 964.3
06 15.07 СВ 4
{7}
н/о н/о +14.9 +12.7 87 +14 +14 1014.3 964.4 +13.0
07 15.07 СВ 5
{9}
н/о н/о +15.7 +12.4 81 +14 +14 1014.6 964.8
08 15.07 СВ 5
{9}
н/о н/о +16.5 +12.3 76 +16 +16 1015.0 965.3
09 15.07 В 6
{10}
н/о н/о +19.0 +12.9 68 +20 +20 1014.7 965.5
10 15.07 СВ 6
{10}
н/о н/о +17.9 +12.4 70 +17 +17 1015.0 965.6
11 15.07 СВ 6
{10}
н/о н/о +18.2 +12.3 68 +18 +18 1015.4 966.0
12 15.07 С 6
{10}
н/о н/о +20.3 +12.6 61 +22 +22 комфорт 1014.6 965.6
13 15.07 СВ 6
{12}
н/о н/о +21.5 +12.2 55 +24 +24 комфорт 1014.0 965.3
14 15.07 СВ 6
{10}
н/о н/о +22.3 +12.0 52 +25 +25 комфорт 1014.2 965.6
15 15.07 С 6
{12}
н/о н/о +22.2 +11.8 52 +25 +25 комфорт 1014.0 965.4
16 15.07 СВ 4
{8}
н/о н/о +22.5 +11.9 51 +25 +25 комфорт 1013.9 965.3
17 15.07 С 4
{8}
н/о н/о +22.0 +12.0 53 +24 +24 комфорт 1014.1 965.4
18 15.07 С 5
{12}
н/о н/о +20.8 +12.4 59 +23 +23 комфорт 1014.6 965.7 +22.8
19 15.07 С 3
{8}
н/о н/о +19.7 +12.2 62 +21 +21 комфорт 1015.0 965.9
20 15.07 С 3
{8}
н/о н/о +19.4 +12.4 64 +21 +21 комфорт 1015.6 966.4
21 15.07 СВ 2
{8}
н/о н/о +17.5 +12.4 72 +18 +18 1016.3 966.8
22 15.07 ЮЗ 2
{3}
н/о н/о +14.5 +12.9 90 +14 +14 1017.3 967.2
23 15.07 ЮЗ 1
{2}
н/о н/о +14.2 +12.8 91 +15 +15 1017.6 967.4
00 16.07 СВ 1
{8}
н/о н/о +13.5 +13.2 98 +14 +14 1017.6 967.3
01 16.07 С 2
{2}
н/о н/о +12.3 +12.3 100 +12 +12 1017.9 967.4
02 16.07 штиль 0
{2}
н/о н/о +11.2 +11.2 100 +10 +10 1018.4 967.6
03 16.07 штиль 0
{2}
н/о н/о +11.4 +11.4 100 +11 +11 1018.3 967.6
04 16.07 В 1
{2}
н/о н/о +11.8 +11.8 100 +11 +11 1018.2 967.6
05 16.07 В 1
{2}
н/о н/о +12.1 +12.1 100 +13 +13 1018.4 967.8
06 16.07 СВ 1
{2}
н/о н/о +15.1 +14.2 94 +16 +16 1017.9 967.9 +10.7
07 16.07 СВ 2
{3}
н/о н/о +17.2 +12.9 76 +18 +18 1017.7 968.0
08 16.07 В 2
{3}
н/о н/о +19.1 +13.0 68 +21 +21 комфорт 1017.2 967.9
09 16.07 СЗ 1
{4}
н/о н/о +20.2 +13.4 65 +23 +23 комфорт 1016.7 967.6
10 16.07 СВ 2
{4}
н/о н/о +22.6 +13.5 56 +26 +26 жарко 1016.1 967.4
11 16.07 СВ 2
{5}
н/о н/о +24.3 +12.8 49 +26 +26 жарко 1015.4 967.1
12 16.07 В 2
{6}
н/о н/о +25.6 +11.7 42 +27 +27 жарко 1014.6 966.5
13 16.07 ЮВ 2
{5}
н/о н/о +25.8 +11.3 40 +27 +27 жарко 1014.1 966.1
14 16.07 В 1
{5}
н/о н/о +26.4 +10.6 37 +27 +27 жарко 1013.8 965.9
15 16.07 СВ 1
{5}
н/о н/о +26.6 +10.6 37 +27 +27 жарко 1013.6 965.7
16 16.07 В 2
{5}
н/о н/о +27.2 +9.8 34 +28 +28 жарко 1013.0 965.3
17 16.07 В 2
{5}
н/о н/о +26.9 +9.8 34 +27 +27 жарко 1013.0 965.2
18 16.07 С 3
{5}
н/о н/о +24.7 +12.0 45 +26 +26 жарко 1013.6 965.4 +27.6
19 16.07 В 2
{5}
н/о н/о +22.0 +11.9 53 +24 +24 комфорт 1014.3 965.6
20 16.07 В 2
{3}
н/о н/о +20.0 +11.1 57 +22 +22 комфорт 1014.8 965.8
21 16.07 ЮЗ 2
{5}
н/о н/о +17.4 +12.6 73 +18 +18 1015.6 966.1
22 16.07 В 1
{2}
н/о н/о +15.0 +13.2 89 +15 +15 1016.2 966.2
23 16.07 ЮВ 1
{2}
н/о н/о +14.4 +12.6 89 +15 +15 1016.4 966.3
00 17.07 В 1
{5}
н/о н/о +13.4 +12.4 94 +14 +14 1016.6 966.3
01 17.07 В 1
{2}
н/о н/о +13.1 +11.9 92 +13 +13 1016.5 966.2
02 17.07 штиль 0
{2}
н/о н/о +12.1 +11.3 95 +11 +11 1016.5 966.0
03 17.07 штиль 0
{2}
н/о н/о +12.1 +11.7 97 +11 +11 1016.4 965.9
04 17.07 штиль 0
{1}
н/о н/о +10.9 +10.9 100 +10 +10 1016.6 965.9
05 17.07 ЮЗ 1
{1}
н/о н/о +12.6 +11.8 95 +13 +13 1016.0 965.6

 

Местоположение метеостанции Гренхен (Швейцария): широта 47.18 долгота 7.42 высота над уровнем моря 430 м.

В архиве по умолчанию представлена погода в Гренхене за последнюю неделю. Архивные данные за месяц целиком и за предыдущие месяцы, начиная с января 2011 года, Вы можете получить, выбрав интересующий диапазон дат из раскрывающегося списка и нажав кнопку "Ввод!".


*Определитесь, кто Вы:
робот инопланетянин человек

Внимание! Время в таблицах - всемирное. Для получения местного времени необходимо прибавить поправку, которая равна 1 ч.

Смотрите также архив погоды в соседних городах и на ближайших метеорологических станциях:

Погода в Оберёш-Коппигене (Швейцария) (16 км)
Погода в Делемоне (Швейцария) (22 км)
Погода в Веве (Швейцария) (22 км)
Погода в Мюлеберге (Швейцария) (25 км)
Погода на Шасрале (Швейцария) (27 км)
Погода в Берне (Швейцария) (28 км)
Погода в Винау (Швейцария) (28 км)
Погода в Кресье (Швейцария) (30 км)
Погода в Лангенбруке (Швейцария) (32 км)
Погода в Лангнау-им-Эмментале (Швейцария) (40 км)

Пояснения к столбцам:

Ветер - указаны скорость ветра в м/с - средняя за 10 мин, порывы в срок и между сроками (в фигурных скобках) и направление, откуда дует ветер: С - северный, СВ - северо-восточный, В - восточный, ЮВ - юго-восточный, Ю - южный, ЮЗ - юго-западный, З - западный, СЗ - северо-западный.
Видимость - горизонтальная дальность видимости в метрах или километрах. При видимости от 1 до 10 км при отсутствии осадков обычно наблюдается дымка, при ухудшении видимости до 1 км и менее - туман. В сухую погоду видимость может ухудшаться дымом, пылью или мглою.
Явления - указаны атмосферные явления, наблюдавшиеся в срок или в последний час перед сроком; фигурными скобками обозначены явления, наблюдавшиеся между сроками (за 1-3 часа до срока); квадратными скобками обозначены град или гололедные отложения с указанием их диаметра в мм.
Облачность - указаны через наклонную черту общая и нижняя облачность в баллах и высота нижней границы облаков в метрах; квадратными скобками обозначены формы облаков: Ci - перистые, Cs - перисто-слоистые, Cc - перисто-кучевые, Ac - высококучевые, As - высокослоистые, Sc - слоисто-кучевые, Ns - слоисто-дождевые, Cu - кучевые, Cb - кучево-дождевые. Подробнее классификацию облаков см. в Атласе облаков (PDF).
T - Температура воздуха - температура, измеренная на высоте 2 м над землей.
Td - Температура точки росы - температура, при понижении до которой содержащийся в воздухе водяной пар достигнет насыщения.
f - Относительная влажность воздуха - влажноcть воздуха, измеренная на высоте 2 м над землей.
Te - Эффективная температура - температура, которую ощущает одетый по сезону человек в тени. Характеристика душности погоды. При расчете учитывается влияние влажности воздуха и скорости ветра на теплоощущения человека.
Tes - Эффективная температура на солнце - температура, которую ощущает человек, с поправкой на солнечный нагрев. Характеристика знойности погоды. Зависит от высоты солнца над горизонтом, облачности и скорости ветра. Ночью, в пасмурную погоду, а также при ветре 12 м/с и более поправка равна нулю.
P - Атмосферное давление - приведенное к уровню моря атмосферное давление.
Po - Атмосферное давление - измеренное на уровне метеостанции атмосферное давление.
Tmin - Минимальная температура - минимум температуры воздуха на высоте 2 м над землей.
Tmax - Максимальная температура - максимум температуры воздуха на высоте 2 м над землей.
R - Количество осадков - Количество выпавших осадков за период времени, мм. При наведении курсора мыши на число - период времени, за который выпало указанное количество осадков.
R24 - Количество осадков - Количество выпавших осадков за 24 часа, мм.
S - Снежный покров - Высота снежного покрова, см. При наведении курсора мыши на число - состояние снежного покрова и степень покрытия местности в баллах.